Location: Academy at Carrie F Thomas
(32.8490°N, 97.2053°W)
Time: 20:24:46
(UTC+00:00)

Cosmos 2228 Rocket - Pass Details

Date: 10 July 2022
Orbit: 618 x 651 km, 82.5° (Epoch: 17 August)

Event Time Altitude Azimuth Distance (km) Brightness Sun altitude
Rises 09:48:47 0° 344° (NNW) 2,931 6.9 -18.0°
Reaches altitude 10° 09:51:07 10° 336° (NNW) 2,024 5.9 -17.6°
Maximum altitude 09:55:17 39° 268° (W) 968 3.7 -17.0°
Enters shadow 09:56:33 31° 231° (SW) 1,112 3.8 -16.8°
